Preview of NWS' New Version of Forecast
This preview is not operational and should not be used for support decisions.

Regional Weather Roundup (RWR)

Issued by National Weather Service (NWS)

                            
000
ASUS45 KBOU 221210
RWRCO 

WEATHER ROUNDUP FOR COLORADO
NATIONAL WEATHER SERVICE DENVER/BOULDER CO
500 AM MST FRI FEB 22 2019

NOTE: "FAIR" INDICATES FEW OR NO CLOUDS BELOW 12000 FEET WITH NO
SIGNIFICANT WEATHER AND/OR OBSTRUCTIONS TO VISIBILITY.

COZ001>005-013-030-031-221300-
...NORTHWEST COLORADO...
  
CITY           SKY/WX    TMP DP  RH WIND       PRES   REMARKS
CRAIG          CLOUDY    19  16  88 NE5       29.69R WCI  12          
HAYDEN         FLURRIES  17  14  88 S3        29.69S                  
MEEKER         LGT SNOW  22  18  85 NE3       29.66R FOG              
RANGELY        CLOUDY    22  15  77 E10       29.72R WCI  11          
RABBIT EARS PA LGT SNOW  14  10  85 SW5       29.60R WCI   6          
STEAMBOAT SPGS CLOUDY    17  11  76 CALM      29.67R                  
WALDEN         CLOUDY     1  -4  78 CALM      29.67R                  
$$

COZ006>008-011-221300-
...WEST CENTRAL VALLEYS...
  
CITY           SKY/WX    TMP DP  RH WIND       PRES   REMARKS
GRAND JUNCTION CLOUDY    31  28  89 NE7       29.69S WCI  24          
MONTROSE       CLOUDY    27  24  89 NE3       29.69S                  
EAGLE          CLOUDY    20  13  74 CALM      29.70R                  
RIFLE          LGT SNOW  29  27  92 CALM      29.69R FOG              
DELTA          LGT SNOW  32  31  96 CALM      29.69F                  
NUCLA          LGT SNOW  28  27  93 CALM      29.70R                  
$$

COZ017>023-064>068-221300-
...SOUTHWEST COLORADO...
  
CITY           SKY/WX    TMP DP  RH WIND       PRES   REMARKS
DURANGO        LGT SNOW  26  26 100 NE7       29.69S FOG     WCI  18  
CORTEZ         LGT SNOW  27  24  89 W6        29.69R FOG     WCI  20  
PAGOSA SPRINGS LGT SNOW  26  25  96 NE6       29.71R WCI  19          
TELLURIDE      LGT SNOW  23  19  86 CALM      29.62F                  
WOLF CREEK PAS CLOUDY    10  10 100 S21G28    29.67S WCI  -9          
$$

COZ009-010-012-014-032>034-037-058>063-221300-
...CENTRAL COLORADO...
  
CITY           SKY/WX    TMP DP  RH WIND       PRES   REMARKS
ASPEN          CLOUDY    28  16  60 S6        29.62R WCI  22          
BUENA VISTA    LGT SNOW  20  17  91 E3        29.72R                  
COPPER MTN     LGT SNOW  14   7  73 SE17G29   29.60S WCI  -3          
BERTHOUD PASS  CLOUDY     5  -6  61 SE32G46   29.62R WCI -20          
COTTONWOOD PAS LGT SNOW  18  14  86 CALM      29.68R                  
GUNNISON       FAIR      23  14  68 E9        29.65F WCI  13          
GRANBY         FAIR       8   1  73 CALM      29.65S                  
KREMMLING      CLOUDY    14   9  79 N9        29.66R WCI   2          
LEADVILLE      CLOUDY    13  12  96 S10       29.64R WCI   0          
MONARCH PASS   CLOUDY    12   9  85 MISG      29.74S                  
SALIDA         CLOUDY    23  20  88 CALM      29.80S                  
SUNLIGHT       LGT SNOW  12  10  92 S6        29.64S WCI   3          
WILKERSON PASS LGT SNOW  12   9  85 SW9G20    29.69R WCI   0          
$$

COZ069>075-221300-
...SAN LUIS VALLEY/SANGRE DE CRISTO MOUNTAINS...
  
CITY           SKY/WX    TMP DP  RH WIND       PRES   REMARKS
ALAMOSA        FAIR      23  12  62 S14       29.71R WCI  11          
DEL NORTE      FLURRIES  18  14  84 E5        29.70S WCI  11          
LA VETA PASS   NOT AVBL                                               
SAGUACHE       MOCLDY    21  10  63 CALM      29.72S                  
$$

COZ035-036-038>040-221300-
...NORTHERN COLORADO FRONT RANGE...
  
CITY           SKY/WX    TMP DP  RH WIND       PRES   REMARKS
DENVER INTL AP SNOW      22  20  92 E12       29.83F VSB 1/2 WCI  10  
AURORA         CLOUDY    22  22 100 CALM      29.83S FOG              
FRONT RANGE AP NOT AVBL                                               
ERIE MUNI ARPT CLOUDY    22  21  95 E5        29.91R FOG     WCI  16  
BOULDER MUN AP CLOUDY    21  21 100 CALM      29.85R FOG              
CENTENNIAL     LGT SNOW  20  18  92 SW5       29.81S FOG     WCI  13  
BROOMFIELD     CLOUDY    23  21  93 CALM      29.84R                  
FORT COLLINS   CLOUDY    21  19  93 SE10      29.87S FOG     WCI  10  
LONGMONT       LGT SNOW  24  21  89 E7        29.89R WCI  16          
$$

COZ041-046-047-076>085-087-088-221300-
...PIKES PEAK/PALMER DIVIDE AND SOUTHERN FOOTHILLS...
  
CITY           SKY/WX    TMP DP  RH WIND       PRES   REMARKS
COLO. SPRINGS  MOCLDY    22  19  89 NW5       29.80S WCI  16          
A. F. ACADEMY  CLOUDY    18  12  78 N7        29.78S WCI   8          
SCHRIEVER AFB  NOT AVBL                                               
CHEYENNE MTN   FAIR      19  13  80 NW5       29.72F WCI  12          
ELLICOTT       CLOUDY   N/A N/A N/A E7        29.78R                  
FALCON         FOG       22  21  97 NE8       29.79S VSB 1   WCI  12  
FORT CARSON    CLOUDY    24  17  74 N7        29.79S WCI  16          
LIMON          FOG       23  23 100 NE7       29.83S VSB 1/2 WCI  15  
MONUMENT HILL  FOG       16  14  93 NW5       29.79S VSB 1/2 WCI   9  
CANON CITY     NOT AVBL                                               
WALSENBURG     NOT AVBL                                               
TRINIDAD       FAIR      20  17  88 MISG      29.80R                  
$$

COZ042>045-048>051-090-091-221300-
...NORTHEAST COLORADO...
  
CITY           SKY/WX    TMP DP  RH WIND       PRES   REMARKS
GREELEY ARPT   MIX PCPN  20  18  92 E12       29.89F FOG     WCI   8  
AKRON          FOG       18  16  92 E13       29.87F VSB 1/2 WCI   5  
BURLINGTON     FOG       27  26  96 E6        29.89S VSB 1/2 WCI  20  
WRAY           SNOW      25  25 100 E12       29.94F VSB 1/4 WCI  14  
YUMA           FOG       19  18  93 NE7       29.91S VSB 1/2 WCI  10  
STERLING       CLOUDY    21  19  93 NE5       29.93S FOG     WCI  15  
HOLYOKE        FOG       25  21  86 E10       29.96S VSB 1   WCI  15  
FORT MORGAN      N/A     19  18  93 E12       29.90S FOG     WCI   7  
$$

COZ086-089-092>099-221300-
...SOUTHEAST COLORADO...
  
CITY           SKY/WX    TMP DP  RH WIND       PRES   REMARKS
PUEBLO         CLOUDY    30  24  78 N6        29.82S WCI  24          
LA JUNTA       CLOUDY    24  21  88 S3        29.83S                  
LAMAR          FAIR      32  25  75 E8        29.86S WCI  25          
SPRINGFIELD      N/A     26  24  92 SE10      29.88R WCI  16          
$$